Regional Weather Roundup
Issued by NWS

Home | Current Version | Previous Version | Text Only | Print | Product List | Glossary Off
Versions: 1 2 3 4 5 6 7 8 9 10 11 12 13 14 15 16 17 18 19 20 21 22 23 24 25 26 27 28 29 30 31 32 33 34 35 36 37 38 39 40 41 42 43 44 45 46 47 48 49 50

638
ASUS43 KIND 191659
RWRIN

WEATHER ROUNDUP FOR INDIANA
NATIONAL WEATHER SERVICE INDIANAPOLIS IN
1200 PM EST SUN FEB 19 2017

NOTE: "FAIR" INDICATES FEW OR NO CLOUDS BELOW 12,000 FEET WITH NO
SIGNIFICANT WEATHER AND/OR OBSTRUCTIONS TO VISIBILITY.

* - STATION DOES NOT REPORT WEATHER SUCH AS PRECIPITATION OR FOG.

+ - STATION NOT QUALITY CONTROLLED BY THE NATIONAL WEATHER SERVICE.
    USE DATA WITH CAUTION...ESPECIALLY DEWPOINT AND RELATIVE
    HUMIDITY OBSERVATIONS.

INZ001>003-010>013-019-020-191800-
NORTHWEST INDIANA

CITY           SKY/WX    TMP DP  RH WIND       PRES   REMARKS
KNOX *+        SUNNY     50  25  37 S3        30.07S
MONTICELLO +   PTSUNNY   49  44  84 S5        30.08S FOG

$$

LMZ046-743>745-191800-
SOUTHERN LAKE MICHIGAN

STATION/POSITION TIME  TEMP    WIND        PRES    WAVE
                       AIR SEA DIR/SP/G            HT
                 (UTC) (F)     (DEG/KT/KT) (MB)    (FT)
BURNS HARBOR     1640   48     340/  2/  3 1018.6S
MICHIGAN CITY    1630   44     230/  5/  5   N/A

$$

INZ004-005-014>016-021>024-191800-
NORTH CENTRAL INDIANA

CITY           SKY/WX    TMP DP  RH WIND       PRES   REMARKS
GOSHEN         SUNNY     57  35  43 W8        30.06R
SOUTH BEND     SUNNY     57  32  38 SW8       30.07S
WARSAW +       SUNNY     50  41  71 SW5       30.07S

$$

INZ006>009-017-018-025>027-191800-
NORTHEAST INDIANA

CITY           SKY/WX    TMP DP  RH WIND       PRES   REMARKS
ANGOLA *+      SUNNY     57  46  67 W9        30.04R
FORT WAYNE     PTSUNNY   51  44  77 SW8       30.08S HAZE
KENDALLVILLE + SUNNY     56  36  46 W7        30.05S

$$

INZ028-029-035-036-043>045-051>053-191800-
WEST CENTRAL INDIANA

CITY           SKY/WX    TMP DP  RH WIND       PRES   REMARKS
LAFAYETTE      MOSUNNY   53  47  79 W3        30.09R
TERRE HAUTE    PTSUNNY   56  47  71 S6        30.10S

$$

INZ030>032-037>040-046>048-054>057-064-065-191800-
CENTRAL INDIANA

CITY           SKY/WX    TMP DP  RH WIND       PRES   REMARKS
CP ATTERBURY + CLOUDY    50  45  81 CALM      30.12S
FRANKFORT +    CLOUDY    56  48  73 W6        30.10S
GREENWOOD *+   CLOUDY    52  47  84 S6        30.10S
INDIANAPOLIS   PTSUNNY   53  47  79 S7        30.10R
-EAGLE CREEK   MOSUNNY   54  46  74 CALM      30.09S
KOKOMO +       SUNNY     54  46  74 SW5       30.10R
MT COMFORT *+  SUNNY     55  46  71 S6        30.09S
SHELBYVILLE    CLOUDY    52  45  77 SW7       30.10S HAZE

$$

INZ033-034-041-042-049-050-058-059-191800-
EAST CENTRAL INDIANA

CITY           SKY/WX    TMP DP  RH WIND       PRES   REMARKS
MUNCIE         SUNNY     55  46  71 W8        30.09R

$$

INZ060-061-067>069-081>083-085>088-191800-
SOUTHWEST INDIANA

CITY           SKY/WX    TMP DP  RH WIND       PRES   REMARKS
EVANSVILLE     CLOUDY    53  48  83 CALM      30.12S
HUNTINGBURG *+ CLOUDY    51  49  92 VRB3      30.13R

$$

INZ062-063-066-070>080-084-089>092-191800-
SOUTH CENTRAL AND SOUTHEAST INDIANA

CITY           SKY/WX    TMP DP  RH WIND       PRES   REMARKS
BLOOMINGTON    CLOUDY    50  46  86 VRB3      30.11R FOG
MADISON *+     CLOUDY    52  46  82 CALM      30.13S

$$





USA.gov is the U.S. government's official web portal to all federal, state and local government web resources and services.